Weather History for KCSV - March, 2013

Change the Weather History Date:

Wednesday, March 27, 2013

  Actual Average Record
Temperature  
Mean Temperature 35 °F 50 °F  
Max Temperature 45 °F 61 °F 77 °F (2007)
Min Temperature 25 °F 40 °F 9 °F (1955)
Degree Days  
Heating Degree Days 30    
Month to date heating degree days 686  
Since 1 July heating degree days 3823  
Cooling Degree Days 0    
Month to date cooling degree days 0  
Year to date cooling degree days 0  
Moisture  
Dew Point 21 °F    
Average Humidity 65    
Maximum Humidity 92    
Minimum Humidity 37    
Precipitation  
Precipitation 0.00 in 0.17 in 3.79 in (1994)
Month to date precipitation 4.29 4.27  
Year to date precipitation 13.84 13.49  
Sea Level Pressure  
Sea Level Pressure 30.32 in    
Wind  
Wind Speed 5 mph (NW)    
Max Wind Speed 15 mph    
Max Gust Speed 21 mph    
Visibility 10 miles    
Events      
T = Trace of Precipitation, MM = Missing Value Source: NWS Daily Summary

Daily Weather History Graph

Daily Weather History Graph

Search for Another Location

Airport or City:

Trip Planner

Search our weather history database for the weather conditions in past years. The results will help you decide how hot, cold, wet, or windy it might be!

Date:

Astronomy

Mar. 27, 2013 Rise Set
Actual Time 6:33 AM CDT 6:58 PM CDT
Civil Twilight 6:07 AM CDT 7:23 PM CDT
Nautical Twilight 5:37 AM CDT 7:54 PM CDT
Astronomical Twilight 5:07 AM CDT 8:24 PM CDT
Moon 7:38 PM CDT (3/27) 6:25 AM CDT (3/27)
Length of Visible Light 13h 16m
Length of Day
12h 24m
Full, 100% of the Moon is Illuminated
Mar 27
Full
Apr 2
Last Quarter
Apr 10
New
Apr 18
First Quarter
Apr 25
Full

Hourly Weather History & Observations

Time (CDT) Temp. Windchill Dew Point Humidity Pressure Visibility Wind Dir Wind Speed Gust Speed Precip Events Conditions
12:53 AM 30.0 °F - 24.1 °F 79% 30.31 in 10.0 mi Calm Calm - N/A   Scattered Clouds
1:53 AM 30.0 °F 25.2 °F 25.0 °F 82% 30.30 in 10.0 mi WNW 4.6 mph - N/A   Overcast
2:53 AM 30.0 °F 25.2 °F 24.1 °F 79% 30.28 in 10.0 mi NNW 4.6 mph - N/A   Mostly Cloudy
3:53 AM 28.9 °F 25.2 °F 23.0 °F 78% 30.30 in 10.0 mi NW 3.5 mph - N/A   Partly Cloudy
4:53 AM 28.0 °F - 23.0 °F 81% 30.30 in 10.0 mi Calm Calm - N/A   Clear
5:53 AM 25.0 °F - 23.0 °F 92% 30.32 in 10.0 mi Calm Calm - N/A   Clear
6:53 AM 25.0 °F - 23.0 °F 92% 30.33 in 9.0 mi Calm Calm - N/A   Clear
7:53 AM 28.9 °F 22.8 °F 24.1 °F 82% 30.35 in 10.0 mi WNW 5.8 mph - N/A   Clear
8:53 AM 30.9 °F 23.5 °F 19.9 °F 64% 30.36 in 10.0 mi WNW 8.1 mph - N/A   Clear
9:53 AM 34.0 °F 29.8 °F 19.9 °F 56% 30.35 in 10.0 mi NW 4.6 mph - N/A   Clear
10:53 AM 36.0 °F 29.0 °F 21.0 °F 55% 30.36 in 10.0 mi WNW 9.2 mph - N/A   Clear
11:53 AM 37.9 °F 32.7 °F 21.9 °F 53% 30.35 in 10.0 mi NW 6.9 mph - N/A   Clear
12:53 PM 39.9 °F 32.5 °F 21.0 °F 47% 30.35 in 10.0 mi North 12.7 mph 18.4 mph N/A   Clear
1:53 PM 41.0 °F 35.8 °F 19.9 °F 43% 30.32 in 10.0 mi West 8.1 mph - N/A   Clear
2:53 PM 43.0 °F 37.2 °F 21.0 °F 42% 30.30 in 10.0 mi WNW 10.4 mph - N/A   Clear
3:53 PM 44.1 °F 37.1 °F 19.9 °F 38% 30.29 in 10.0 mi NNW 15.0 mph 20.7 mph N/A   Clear
4:53 PM 44.1 °F 40.8 °F 19.9 °F 38% 30.30 in 10.0 mi NNW 5.8 mph - N/A   Partly Cloudy
5:53 PM 43.0 °F 39.5 °F 19.9 °F 40% 30.30 in 10.0 mi WNW 5.8 mph 16.1 mph N/A   Clear
6:53 PM 39.9 °F 36.7 °F 19.0 °F 43% 30.30 in 10.0 mi WNW 4.6 mph - N/A   Clear
7:53 PM 37.9 °F 33.5 °F 19.9 °F 48% 30.31 in 10.0 mi West 5.8 mph - N/A   Clear
8:53 PM 37.0 °F 34.5 °F 19.0 °F 48% 30.32 in 10.0 mi West 3.5 mph - N/A   Clear
9:53 PM 35.1 °F - 21.0 °F 57% 30.32 in 10.0 mi Calm Calm - N/A   Clear
10:53 PM 30.0 °F - 21.0 °F 69% 30.32 in 10.0 mi Calm Calm - N/A   Clear
11:53 PM 28.9 °F - 19.9 °F 69% 30.31 in 10.0 mi Calm Calm - N/A   Clear